| time (UTC) | temp F | wind direction | speed MPH | gust MPH | rain 1hr in | rain 24hr in | rain mn in | humidity % | barometer mb |
| 20260831133005 | 68 | 194 | 0.0 | 0.0 | 0.00 | 0.00 | 0.00 | 88 | 1020.5 |
| 20260831131510 | 67 | 229 | 0.0 | 0.0 | 0.00 | 0.00 | 0.00 | 89 | 1020.5 |
| 20260831130003 | 66 | 281 | 0.0 | 0.0 | 0.00 | 0.00 | 0.00 | 91 | 1020.5 |
| 20260831124515 | 65 | 285 | 0.0 | 0.0 | 0.00 | 0.00 | 0.00 | 92 | 1020.8 |
| 20260831123007 | 64 | 285 | 0.0 | 0.0 | 0.00 | 0.00 | 0.00 | 93 | 1020.6 |
| 20260831121509 | 63 | 285 | 0.0 | 0.0 | 0.00 | 0.00 | 0.00 | 93 | 1020.6 |
| 20260831120017 | 63 | 285 | 0.0 | 0.0 | 0.00 | 0.00 | 0.00 | 93 | 1020.5 |
| 20260831114504 | 63 | 285 | 0.0 | 0.0 | 0.00 | 0.00 | 0.00 | 93 | 1020.4 |
| 20260831113007 | 62 | 285 | 0.0 | 0.0 | 0.00 | 0.00 | 0.00 | 93 | 1020.5 |
| 20260831111509 | 62 | 285 | 0.0 | 0.0 | 0.00 | 0.00 | 0.00 | 93 | 1020.2 |
| 20260831110019 | 62 | 285 | 0.0 | 0.0 | 0.00 | 0.00 | 0.00 | 93 | 1020.0 |
| 20260831104516 | 62 | 285 | 0.0 | 0.0 | 0.00 | 0.00 | 0.00 | 93 | 1019.9 |
| 20260831103007 | 62 | 285 | 0.0 | 0.0 | 0.00 | 0.00 | 0.00 | 92 | 1019.7 |
| 20260831101505 | 62 | 285 | 0.0 | 0.0 | 0.00 | 0.00 | 0.00 | 92 | 1019.7 |
| 20260831100012 | 62 | 285 | 0.0 | 0.0 | 0.00 | 0.00 | 0.00 | 92 | 1019.7 |
| 20260831094513 | 62 | 285 | 0.0 | 0.0 | 0.00 | 0.00 | 0.00 | 92 | 1019.4 |
| 20260831093032 | 62 | 285 | 0.0 | 0.0 | 0.00 | 0.00 | 0.00 | 92 | 1019.3 |
| 20260831091504 | 62 | 285 | 0.0 | 0.0 | 0.00 | 0.00 | 0.00 | 92 | 1019.4 |
| 20260831090007 | 62 | 285 | 0.0 | 0.0 | 0.00 | 0.00 | 0.00 | 92 | 1019.2 |
| 20260831084507 | 62 | 285 | 0.0 | 0.0 | 0.00 | 0.00 | 0.00 | 92 | 1019.2 |
| 20260831083016 | 62 | 293 | 0.0 | 0.0 | 0.00 | 0.00 | 0.00 | 92 | 1019.2 |
| 20260831081521 | 62 | 293 | 0.0 | 0.0 | 0.00 | 0.00 | 0.00 | 92 | 1019.2 |
| 20260831080003 | 62 | 293 | 0.0 | 0.0 | 0.00 | 0.00 | 0.00 | 91 | 1019.3 |
| 20260831074507 | 62 | 329 | 0.0 | 0.0 | 0.00 | 0.00 | 0.00 | 91 | 1019.2 |
| 20260831073011 | 63 | 329 | 0.0 | 0.0 | 0.00 | 0.00 | 0.00 | 91 | 1019.2 |
| 20260831071517 | 63 | 329 | 0.0 | 0.0 | 0.00 | 0.00 | 0.00 | 91 | 1019.2 |
| 20260831070027 | 64 | 345 | 0.0 | 0.0 | 0.00 | 0.00 | 0.00 | 90 | 1019.2 |
| 20260831064505 | 64 | 345 | 0.0 | 0.0 | 0.00 | 0.00 | 0.00 | 90 | 1019.0 |
| 20260831063010 | 64 | 345 | 0.0 | 0.0 | 0.00 | 0.00 | 0.00 | 90 | 1019.2 |
| 20260831061513 | 64 | 343 | 0.0 | 0.0 | 0.00 | 0.00 | 0.00 | 90 | 1019.0 |
| 20260831060021 | 65 | 336 | 0.0 | 0.0 | 0.00 | 0.00 | 0.00 | 89 | 1019.1 |
| 20260831054527 | 65 | 336 | 0.0 | 0.0 | 0.00 | 0.00 | 0.00 | 89 | 1018.8 |
| 20260831053025 | 65 | 343 | 0.0 | 0.0 | 0.00 | 0.00 | 0.00 | 88 | 1018.9 |
| 20260831051509 | 65 | 316 | 0.0 | 0.0 | 0.00 | 0.00 | 0.00 | 87 | 1018.8 |
| 20260831050018 | 66 | 316 | 0.0 | 0.0 | 0.00 | 0.00 | 0.00 | 87 | 1018.9 |
| 20260831044525 | 67 | 316 | 0.0 | 0.0 | 0.00 | 0.00 | 0.00 | 86 | 1018.9 |
| 20260831043030 | 67 | 316 | 0.0 | 0.0 | 0.00 | 0.00 | 0.00 | 85 | 1019.0 |
| 20260831041509 | 67 | 316 | 0.0 | 0.0 | 0.00 | 0.00 | 0.00 | 84 | 1018.8 |
| 20260831040014 | 68 | 310 | 0.0 | 0.0 | 0.00 | 0.00 | 0.00 | 84 | 1018.7 |
| 20260831034515 | 68 | 306 | 0.0 | 0.0 | 0.00 | 0.00 | 0.00 | 83 | 1018.8 |
| 20260831033035 | 69 | 359 | 0.0 | 0.0 | 0.00 | 0.00 | 0.00 | 83 | 1018.7 |
| 20260831031528 | 70 | 2 | 0.0 | 0.0 | 0.00 | 0.00 | 0.00 | 81 | 1018.7 |
| 20260831030008 | 70 | 2 | 0.0 | 0.0 | 0.00 | 0.00 | 0.00 | 79 | 1018.8 |
| 20260831024518 | 71 | 10 | 0.0 | 0.0 | 0.00 | 0.00 | 0.00 | 78 | 1019.0 |
| 20260831023032 | 71 | 10 | 0.0 | 0.0 | 0.00 | 0.00 | 0.00 | 77 | 1018.9 |
| 20260831021535 | 72 | 348 | 0.0 | 0.0 | 0.00 | 0.00 | 0.00 | 76 | 1018.6 |
| 20260831020055 | 72 | 290 | 0.0 | 3.0 | 0.00 | 0.00 | 0.00 | 76 | 1018.7 |
| 20260831014510 | 72 | 289 | 0.0 | 5.0 | 0.00 | 0.00 | 0.00 | 74 | 1018.7 |
| 20260831013017 | 72 | 300 | 0.0 | 4.0 | 0.00 | 0.00 | 0.00 | 75 | 1018.5 |
| 20260831011528 | 72 | 274 | 0.0 | 3.0 | 0.00 | 0.00 | 0.00 | 77 | 1018.4 |
| 20260831010036 | 72 | 284 | 0.0 | 1.0 | 0.00 | 0.00 | 0.00 | 77 | 1018.3 |
| 20260831004537 | 73 | 307 | 0.0 | 0.0 | 0.00 | 0.00 | 0.00 | 76 | 1018.0 |
| 20260831003014 | 72 | 152 | 0.0 | 0.0 | 0.00 | 0.00 | 0.00 | 78 | 1017.7 |
| 20260831001526 | 72 | 296 | 0.0 | 0.0 | 0.00 | 0.00 | 0.00 | 80 | 1017.2 |
| 20260831000024 | 72 | 307 | 0.0 | 4.0 | 0.00 | 0.00 | 0.00 | 80 | 1017.3 |
| 20260830234541 | 72 | 305 | 0.0 | 2.0 | 0.00 | 0.00 | 0.00 | 83 | 1017.1 |
| 20260830233033 | 72 | 275 | 0.0 | 2.0 | 0.00 | 0.00 | 0.00 | 88 | 1017.2 |
| 20260830231518 | 72 | 278 | 0.0 | 0.0 | 0.00 | 0.00 | 0.00 | 89 | 1017.2 |
| 20260830230008 | 72 | 278 | 0.0 | 0.0 | 0.00 | 0.00 | 0.00 | 88 | 1017.1 |
| 20260830224508 | 73 | 278 | 0.0 | 0.0 | 0.00 | 0.00 | 0.00 | 87 | 1017.2 |
| 20260830223007 | 73 | 271 | 0.0 | 0.0 | 0.00 | 0.00 | 0.00 | 87 | 1017.1 |
| 20260830221512 | 73 | 271 | 0.0 | 0.0 | 0.00 | 0.00 | 0.00 | 86 | 1017.1 |
| 20260830220007 | 73 | 271 | 0.0 | 0.0 | 0.00 | 0.00 | 0.00 | 86 | 1017.0 |
| 20260830214507 | 73 | 271 | 0.0 | 0.0 | 0.00 | 0.00 | 0.00 | 86 | 1016.9 |
| 20260830213005 | 73 | 271 | 0.0 | 0.0 | 0.00 | 0.00 | 0.00 | 85 | 1016.7 |
| 20260830211509 | 74 | 271 | 0.0 | 0.0 | 0.00 | 0.00 | 0.00 | 84 | 1016.8 |
| 20260830210041 | 74 | 247 | 0.0 | 0.0 | 0.00 | 0.00 | 0.00 | 84 | 1016.9 |
| 20260830204510 | 74 | 241 | 0.0 | 1.0 | 0.00 | 0.00 | 0.00 | 83 | 1017.1 |
| 20260830203010 | 75 | 299 | 0.0 | 0.0 | 0.00 | 0.00 | 0.00 | 82 | 1017.1 |
| 20260830201504 | 75 | 353 | 0.0 | 0.0 | 0.00 | 0.00 | 0.00 | 82 | 1017.2 |
| 20260830200009 | 76 | 252 | 0.0 | 2.0 | 0.00 | 0.00 | 0.00 | 80 | 1017.3 |
| 20260830194514 | 76 | 107 | 0.0 | 2.0 | 0.00 | 0.00 | 0.00 | 80 | 1017.3 |
| 20260830193018 | 75 | 265 | 0.0 | 4.0 | 0.00 | 0.00 | 0.00 | 80 | 1017.5 |
| 20260830191518 | 75 | 18 | 0.0 | 4.0 | 0.00 | 0.00 | 0.00 | 80 | 1017.6 |
| 20260830190011 | 75 | 279 | 0.0 | 2.0 | 0.00 | 0.00 | 0.00 | 79 | 1017.8 |
| 20260830184514 | 75 | 81 | 0.0 | 3.0 | 0.00 | 0.00 | 0.00 | 77 | 1018.0 |
| 20260830183014 | 76 | 254 | 0.0 | 4.0 | 0.00 | 0.00 | 0.00 | 76 | 1018.3 |
| 20260830181516 | 76 | 256 | 0.0 | 2.0 | 0.00 | 0.00 | 0.00 | 76 | 1018.3 |
| 20260830180024 | 76 | 153 | 0.0 | 0.0 | 0.00 | 0.00 | 0.00 | 75 | 1018.6 |
| 20260830174513 | 76 | 277 | 0.0 | 0.0 | 0.00 | 0.00 | 0.00 | 74 | 1018.6 |
| 20260830173016 | 76 | 180 | 0.0 | 3.0 | 0.00 | 0.00 | 0.00 | 72 | 1018.8 |
| 20260830171515 | 76 | 334 | 0.0 | 3.0 | 0.00 | 0.00 | 0.00 | 73 | 1018.7 |
| 20260830170020 | 75 | 240 | 0.0 | 2.0 | 0.00 | 0.00 | 0.00 | 75 | 1018.8 |
| 20260830164521 | 74 | 98 | 0.0 | 1.0 | 0.00 | 0.00 | 0.00 | 75 | 1019.0 |
| 20260830163015 | 74 | 264 | 0.0 | 5.0 | 0.00 | 0.00 | 0.00 | 73 | 1019.2 |
| 20260830161527 | 74 | 294 | 0.0 | 4.0 | 0.00 | 0.00 | 0.00 | 75 | 1019.4 |
| 20260830160019 | 74 | 230 | 0.0 | 0.0 | 0.00 | 0.00 | 0.00 | 73 | 1019.5 |
| 20260830154523 | 74 | 137 | 0.0 | 4.0 | 0.00 | 0.00 | 0.00 | 73 | 1019.7 |
| 20260830153027 | 73 | 115 | 0.0 | 1.0 | 0.00 | 0.00 | 0.00 | 74 | 1019.9 |
| 20260830151515 | 72 | 84 | 0.0 | 0.0 | 0.00 | 0.00 | 0.00 | 75 | 1020.1 |
| 20260830150020 | 72 | 291 | 0.0 | 2.0 | 0.00 | 0.00 | 0.00 | 73 | 1020.3 |
| 20260830144523 | 72 | 212 | 0.0 | 0.0 | 0.00 | 0.00 | 0.00 | 74 | 1020.2 |
| 20260830143028 | 72 | 156 | 0.0 | 0.0 | 0.00 | 0.00 | 0.00 | 73 | 1020.3 |
| 20260830141519 | 71 | 108 | 0.0 | 0.0 | 0.00 | 0.00 | 0.00 | 78 | 1020.4 |
| 20260830140020 | 69 | 208 | 0.0 | 0.0 | 0.00 | 0.00 | 0.00 | 80 | 1020.4 |
| 20260830134503 | 68 | 41 | 0.0 | 0.0 | 0.00 | 0.00 | 0.00 | 80 | 1020.4 |